Previsão horária em Barr

Hoje, 20 Outubro, Terça-feira

Tempo Temperatura Precipitação Vento Pressão Humidade
00:00 +7°C° 0 mm 1 m/s 735 mmHg 78%
01:00 +7°C° 0 mm 1 m/s 735 mmHg 78%
02:00 +6°C° 0 mm 2 m/s 735 mmHg 77%
03:00 +6°C° 0 mm 2 m/s 734 mmHg 77%
04:00 +6°C° 0 mm 2 m/s 734 mmHg 76%
05:00 +6°C° 0 mm 2 m/s 734 mmHg 76%
06:00 +7°C° 0 mm 2 m/s 734 mmHg 75%
07:00 +9°C° 0 mm 2 m/s 734 mmHg 70%
08:00 +10°C° 0 mm 2 m/s 734 mmHg 65%
09:00 +13°C° 0 mm 2 m/s 735 mmHg 60%
10:00 +15°C° 0 mm 2 m/s 734 mmHg 57%
11:00 +16°C° 0 mm 2 m/s 734 mmHg 55%
12:00 +17°C° 0 mm 2 m/s 734 mmHg 52%
13:00 +17°C° 0 mm 2 m/s 734 mmHg 56%
14:00 +16°C° 0 mm 2 m/s 734 mmHg 59%
15:00 +16°C° 0 mm 1 m/s 733 mmHg 62%
16:00 +15°C° 0 mm 1 m/s 733 mmHg 65%
17:00 +14°C° 0 mm 1 m/s 733 mmHg 68%
18:00 +13°C° 0 mm 1 m/s 733 mmHg 71%
19:00 +13°C° 0 mm 1 m/s 733 mmHg 71%
20:00 +12°C° 0 mm 1 m/s 733 mmHg 71%
21:00 +12°C° 0 mm 1 m/s 733 mmHg 70%
22:00 +12°C° 0 mm 1 m/s 732 mmHg 69%
23:00 +13°C° 0 mm 1 m/s 732 mmHg 67%

Amanhã, 21 Outubro, Quarta-feira

Tempo Temperatura Precipitação Vento Pressão Humidade
00:00 +13°C° 0 mm 1 m/s 732 mmHg 65%
01:00 +12°C° 0 mm 1 m/s 731 mmHg 64%
02:00 +12°C° 0 mm 1 m/s 731 mmHg 63%
03:00 +12°C° 0 mm 2 m/s 730 mmHg 62%
04:00 +12°C° 0 mm 2 m/s 730 mmHg 62%
05:00 +11°C° 0 mm 1 m/s 730 mmHg 61%
06:00 +11°C° 0 mm 1 m/s 730 mmHg 61%
07:00 +13°C° 0 mm 2 m/s 730 mmHg 59%
08:00 +14°C° 0 mm 2 m/s 731 mmHg 56%
09:00 +15°C° 0 mm 2 m/s 731 mmHg 54%
10:00 +17°C° 0 mm 2 m/s 731 mmHg 50%
11:00 +18°C° 0 mm 3 m/s 732 mmHg 47%
12:00 +20°C° 0 mm 3 m/s 732 mmHg 43%
13:00 +19°C° 0 mm 3 m/s 732 mmHg 47%
14:00 +19°C° 0 mm 3 m/s 732 mmHg 51%
15:00 +19°C° 0 mm 3 m/s 732 mmHg 55%
16:00 +18°C° 0 mm 3 m/s 733 mmHg 58%
17:00 +17°C° 0 mm 3 m/s 733 mmHg 61%
18:00 +15°C° 0 mm 2 m/s 733 mmHg 64%
19:00 +15°C° 0 mm 2 m/s 733 mmHg 65%
20:00 +15°C° 0 mm 2 m/s 734 mmHg 66%
21:00 +15°C° 0 mm 2 m/s 734 mmHg 67%
22:00 +15°C° 0 mm 2 m/s 734 mmHg 67%
23:00 +15°C° 0 mm 2 m/s 734 mmHg 66%

Depois de amanhã, 22 Outubro, Quinta-feira

Tempo Temperatura Precipitação Vento Pressão Humidade
00:00 +15°C° 0 mm 2 m/s 734 mmHg 66%
01:00 +15°C° 0 mm 2 m/s 734 mmHg 67%
02:00 +14°C° 0 mm 2 m/s 734 mmHg 69%
03:00 +14°C° 0 mm 2 m/s 734 mmHg 70%
04:00 +13°C° 0 mm 2 m/s 734 mmHg 70%
05:00 +13°C° 0 mm 2 m/s 734 mmHg 70%
06:00 +13°C° 0 mm 2 m/s 733 mmHg 70%
07:00 +14°C° 0 mm 2 m/s 734 mmHg 67%
08:00 +16°C° 0 mm 2 m/s 734 mmHg 63%
09:00 +17°C° 0 mm 2 m/s 734 mmHg 60%
10:00 +18°C° 0 mm 3 m/s 734 mmHg 58%
11:00 +19°C° 0 mm 4 m/s 734 mmHg 56%
12:00 +19°C° 0 mm 5 m/s 734 mmHg 54%
13:00 +19°C° 0 mm 4 m/s 734 mmHg 56%
14:00 +19°C° 0 mm 4 m/s 734 mmHg 58%
15:00 +19°C° 0 mm 3 m/s 733 mmHg 60%
16:00 +18°C° 0.3 mm 3 m/s 733 mmHg 68%
17:00 +16°C° 0.3 mm 3 m/s 734 mmHg 76%
18:00 +14°C° 0.3 mm 3 m/s 734 mmHg 84%
19:00 +14°C° 0.3 mm 3 m/s 734 mmHg 85%
20:00 +14°C° 0.3 mm 3 m/s 734 mmHg 86%
21:00 +14°C° 0.3 mm 3 m/s 734 mmHg 88%
22:00 +14°C° 0.5 mm 4 m/s 734 mmHg 88%
23:00 +13°C° 0.5 mm 4 m/s 734 mmHg 89%

23 Outubro, Sexta-feira

Tempo Temperatura Precipitação Vento Pressão Humidade
00:00 +13°C° 0.5 mm 4 m/s 734 mmHg 90%
01:00 +13°C° 0.1 mm 4 m/s 734 mmHg 89%
02:00 +13°C° 0.1 mm 4 m/s 734 mmHg 87%
03:00 +12°C° 0.1 mm 4 m/s 735 mmHg 86%
04:00 +12°C° 0 mm 4 m/s 735 mmHg 87%
05:00 +12°C° 0 mm 3 m/s 735 mmHg 88%
06:00 +11°C° 0 mm 3 m/s 735 mmHg 89%
07:00 +12°C° 0 mm 4 m/s 736 mmHg 85%
08:00 +13°C° 0 mm 4 m/s 736 mmHg 81%
09:00 +13°C° 0 mm 4 m/s 736 mmHg 78%
10:00 +14°C° 0 mm 4 m/s 736 mmHg 75%
11:00 +14°C° 0 mm 4 m/s 736 mmHg 72%
12:00 +14°C° 0 mm 4 m/s 736 mmHg 70%
13:00 +14°C° 0 mm 4 m/s 736 mmHg 70%
14:00 +14°C° 0 mm 4 m/s 736 mmHg 70%
15:00 +13°C° 0 mm 3 m/s 736 mmHg 70%
16:00 +12°C° 0 mm 3 m/s 737 mmHg 76%
17:00 +11°C° 0 mm 3 m/s 737 mmHg 82%
18:00 +10°C° 0 mm 2 m/s 737 mmHg 87%
19:00 +10°C° 0 mm 2 m/s 738 mmHg 87%
20:00 +10°C° 0 mm 3 m/s 738 mmHg 87%
21:00 +9°C° 0 mm 3 m/s 738 mmHg 87%
22:00 +9°C° 0 mm 3 m/s 738 mmHg 88%
23:00 +9°C° 0 mm 3 m/s 739 mmHg 88%

24 Outubro, Sábado

Tempo Temperatura Precipitação Vento Pressão Humidade
00:00 +8°C° 0 mm 4 m/s 739 mmHg 89%
01:00 +9°C° 0 mm 3 m/s 739 mmHg 89%
02:00 +8°C° 0 mm 3 m/s 739 mmHg 88%
03:00 +8°C° 0 mm 3 m/s 739 mmHg 88%
04:00 +8°C° 0 mm 3 m/s 739 mmHg 88%
05:00 +8°C° 0 mm 3 m/s 739 mmHg 87%
06:00 +9°C° 0 mm 3 m/s 740 mmHg 86%
07:00 +9°C° 0 mm 3 m/s 740 mmHg 84%
08:00 +10°C° 0 mm 3 m/s 740 mmHg 82%
09:00 +11°C° 0 mm 3 m/s 740 mmHg 79%
10:00 +11°C° 0 mm 3 m/s 740 mmHg 77%
11:00 +13°C° 0 mm 2 m/s 740 mmHg 74%
12:00 +14°C° 0 mm 2 m/s 740 mmHg 72%
13:00 +14°C° 0 mm 2 m/s 740 mmHg 71%
14:00 +14°C° 0 mm 2 m/s 739 mmHg 71%
15:00 +15°C° 0 mm 1 m/s 739 mmHg 71%
16:00 +13°C° 0 mm 1 m/s 739 mmHg 76%
17:00 +12°C° 0 mm 1 m/s 739 mmHg 82%
18:00 +10°C° 0 mm 1 m/s 739 mmHg 88%
19:00 +10°C° 0 mm 1 m/s 739 mmHg 88%
20:00 +10°C° 0 mm 1 m/s 739 mmHg 89%
21:00 +9°C° 0 mm 0 m/s 738 mmHg 89%
22:00 +8°C° 0 mm 0 m/s 738 mmHg 89%
23:00 +8°C° 0 mm 0 m/s 738 mmHg 90%

25 Outubro, Domingo

Tempo Temperatura Precipitação Vento Pressão Humidade
00:00 +8°C° 0 mm 0 m/s 738 mmHg 90%
01:00 +8°C° 0 mm 0 m/s 737 mmHg 90%
02:00 +7°C° 0 mm 0 m/s 737 mmHg 91%
03:00 +8°C° 0 mm 1 m/s 736 mmHg 91%
04:00 +8°C° 0 mm 1 m/s 736 mmHg 91%
05:00 +8°C° 0 mm 1 m/s 736 mmHg 91%
06:00 +8°C° 0 mm 1 m/s 736 mmHg 91%
07:00 +9°C° 0 mm 1 m/s 735 mmHg 85%
08:00 +11°C° 0 mm 1 m/s 735 mmHg 79%
09:00 +13°C° 0 mm 1 m/s 735 mmHg 72%
10:00 +14°C° 0 mm 1 m/s 734 mmHg 67%
11:00 +16°C° 0 mm 2 m/s 734 mmHg 62%
12:00 +17°C° 0 mm 2 m/s 733 mmHg 57%
13:00 +17°C° 0 mm 2 m/s 733 mmHg 60%
14:00 +16°C° 0 mm 1 m/s 732 mmHg 63%
15:00 +16°C° 0 mm 1 m/s 732 mmHg 67%
16:00 +14°C° 0 mm 1 m/s 732 mmHg 73%
17:00 +13°C° 0 mm 1 m/s 732 mmHg 78%
18:00 +11°C° 0 mm 1 m/s 732 mmHg 84%
19:00 +11°C° 0 mm 1 m/s 732 mmHg 84%
20:00 +11°C° 0 mm 1 m/s 732 mmHg 84%
21:00 +11°C° 0 mm 1 m/s 732 mmHg 83%
22:00 +11°C° 0 mm 1 m/s 732 mmHg 84%
23:00 +11°C° 0 mm 1 m/s 732 mmHg 85%

26 Outubro, Segunda-feira

Tempo Temperatura Precipitação Vento Pressão Humidade
00:00 +9°C° 0 mm 2 m/s 732 mmHg 86%
01:00 +10°C° 0 mm 1 m/s 732 mmHg 86%
02:00 +10°C° 0 mm 1 m/s 731 mmHg 86%
03:00 +10°C° 0 mm 1 m/s 731 mmHg 87%
04:00 +10°C° 0 mm 1 m/s 731 mmHg 87%
05:00 +10°C° 0 mm 1 m/s 731 mmHg 88%
06:00 +10°C° 0 mm 1 m/s 731 mmHg 89%
07:00 +11°C° 0 mm 1 m/s 732 mmHg 84%
08:00 +13°C° 0 mm 1 m/s 732 mmHg 79%
09:00 +14°C° 0 mm 1 m/s 732 mmHg 73%
10:00 +15°C° 0 mm 1 m/s 732 mmHg 69%
11:00 +16°C° 0 mm 1 m/s 732 mmHg 65%
12:00 +18°C° 0 mm 1 m/s 732 mmHg 61%
13:00 +18°C° 0 mm 1 m/s 732 mmHg 65%
14:00 +18°C° 0 mm 1 m/s 733 mmHg 68%
15:00 +16°C° 0 mm 1 m/s 733 mmHg 71%
16:00 +15°C° 0 mm 1 m/s 733 mmHg 76%
17:00 +14°C° 0 mm 1 m/s 734 mmHg 82%
18:00 +12°C° 0 mm 1 m/s 735 mmHg 87%
19:00 +12°C° 0.1 mm 1 m/s 735 mmHg 88%
20:00 +12°C° 0.1 mm 1 m/s 736 mmHg 89%
21:00 +12°C° 0.1 mm 1 m/s 736 mmHg 90%
22:00 +12°C° 0.1 mm 1 m/s 737 mmHg 90%
23:00 +12°C° 0.1 mm 1 m/s 737 mmHg 91%
Mostrar mais